Home > Weather > Spiez > Past weeks

Flag for Switzerland Past Weather in Spiez, Bern, Switzerland — Yesterday and Last 2 Weeks

Now
84 °F

Warm.


Feels Like: 87 °F
Forecast: 63 / 89 °F
Wind: 5 mph from Northeast

Location: Interlaken

Current Time: Aug 25, 2016 at 5:24:14 PM

Latest Report: Aug 25, 2016 at 4:00 PM


Visibility: N/A

Pressure: 29.97 "Hg (27.98 "Hg at 607m altitude)

Humidity: 55%

Dew Point: 66 °F

Location of SpiezLocation

Past Weather in Spiez — Graph

°F

Spiez Temperature Yesterday

Maximum temperature yesterday: 81 °F (at 4:00 PM)
Minimum temperature yesterday: 56 °F (at 8:00 AM)
Average temperature yesterday: 67 °F

High & Low Weather Summary for the Past Weeks

 TemperatureHumidityPressure
High84 °F (Aug 25, 4:00 PM)100% (Aug 18, 9:00 PM)30.41 "Hg (Aug 18, 9:00 PM)
Low47 °F (Aug 11, 6:00 AM)44% (Aug 11, 6:00 PM)29.79 "Hg (Aug 17, 6:00 PM)
Average64 °F79%30.12 "Hg
* Reported Aug 10 4:00 PM — Aug 25 4:00 PM, Spiez, Weather by CustomWeather, © 2016

Note: Actual official high and low records may vary slightly from our data, if they occured in-between our weather recording intervals... More about our weather records

Advertising

Spiez Weather History for the Previous 24 Hours

Scroll right to see more
 ConditionsComfort  
Time TempWeatherWind HumidityBarometerVisibility
4:00 PM
Thu, Aug 25
84 °FWarm.5 mph55%29.97 "HgN/A
3:00 PM82 °FWarm.8 mph59%29.98 "HgN/A
2:00 PM81 °FWarm.3 mph58%30.00 "HgN/A
1:00 PM79 °FWarm.5 mph57%30.02 "HgN/A
12:00 PM77 °FWarm.5 mph59%30.03 "HgN/A
11:00 AM72 °FMild.2 mph69%30.06 "HgN/A
10:00 AM68 °FMild.2 mph82%30.09 "HgN/A
9:00 AM65 °FMild.1 mph84%30.11 "HgN/A
8:00 AM60 °FCool.2 mph85%30.14 "HgN/A
7:00 AM60 °FCool.2 mph84%30.13 "HgN/A
6:00 AM60 °FCool.2 mph85%30.12 "HgN/A
5:00 AM61 °FCool.1 mph85%30.12 "HgN/A
4:00 AM62 °FCool.1 mph87%30.11 "HgN/A
3:00 AM63 °FMild.2 mph87%30.11 "HgN/A
2:00 AM64 °FMild.1 mph92%30.10 "HgN/A
1:00 AM65 °FMild.No wind92%30.11 "HgN/A
12:00 AM66 °FMild.2 mph85%30.10 "HgN/A
11:00 PM
Wed, Aug 24
67 °FMild.3 mph86%30.11 "HgN/A
10:00 PM68 °FMild.2 mph86%30.11 "HgN/A
9:00 PM70 °FMild.5 mph83%30.10 "HgN/A
8:00 PM72 °FMild.5 mph79%30.08 "HgN/A
7:00 PM76 °FMild.3 mph68%30.06 "HgN/A
6:00 PM80 °FWarm.7 mph57%30.05 "HgN/A
5:00 PM81 °FWarm.8 mph59%30.06 "HgN/A
Weather by CustomWeather, © 2016

See weather overviewHow to use our weather pages